Wind_Speed
44 44 45 46 47 48 48 49 48 48 48 49 49 51 51 51 51 51 51 51 51 51 51 51 52 52 52 53 52 52 52 52 53 54 55 55 54 54 53 52 51 51 51
44 45 45 45 46 47 48 48 49 49 48 49 49 50 50 50 50 51 51 51 51 50 50 50 49 50 51 51 51 52 52 52 52 52 53 54 54 54 53 52 52 52 51
44 44 45 45 46 46 47 47 48 49 49 48 49 49 50 50 49 49 49 50 50 50 51 50 49 49 50 51 51 52 53 53 53 53 52 54 54 53 53 53 53 52 52
43 43 44 44 45 45 46 47 47 48 48 48 48 48 48 48 48 49 49 49 50 51 51 51 50 50 50 50 51 52 52 52 53 53 52 52 52 53 52 53 53 53 52
42 43 43 44 44 45 45 47 47 47 48 48 48 47 48 48 48 48 48 49 50 51 52 52 52 51 50 51 51 51 51 52 52 52 51 52 52 52 53 53 53 52 52
42 42 43 44 45 46 45 46 47 48 48 48 48 47 48 49 48 47 47 47 48 49 50 51 52 52 51 52 51 51 51 51 51 51 51 52 52 53 54 53 53 52 52
43 43 44 45 45 45 45 46 47 47 47 48 49 49 49 49 48 47 47 48 47 48 49 50 50 51 52 52 51 51 51 51 51 51 51 51 52 53 53 53 52 52 51
43 44 44 45 45 45 46 46 47 47 48 48 48 49 49 49 49 49 49 48 48 48 48 49 49 50 52 52 52 53 52 52 51 51 50 51 51 50 51 51 51 51 51
42 43 44 44 44 45 45 46 47 47 47 47 48 48 47 47 47 48 49 49 49 48 48 49 49 49 50 52 53 53 52 52 52 52 52 51 51 50 50 50 50 51 51
43 43 44 45 44 44 44 45 45 46 46 46 47 47 48 48 48 49 49 50 50 50 50 50 50 50 50 51 51 52 52 52 52 52 52 52 52 52 52 51 51 51 51
43 44 44 44 44 45 44 44 45 45 46 46 47 47 47 48 49 49 49 50 50 50 50 50 50 51 51 51 51 52 52 52 52 52 52 52 52 53 53 53 53 53 52
42 42 43 44 44 44 45 45 45 45 46 47 47 47 47 48 48 49 49 50 50 49 49 49 50 50 50 51 51 52 52 52 52 52 52 51 52 53 54 54 53 53 53
41 42 42 42 43 44 44 44 45 45 45 46 47 47 47 47 48 49 49 48 48 48 48 48 49 49 50 50 50 51 51 52 52 53 53 52 53 53 54 55 55 54 54
41 41 41 42 43 43 43 43 44 45 45 45 46 46 46 46 47 47 47 47 46 47 47 47 47 48 48 48 48 49 50 51 52 52 52 53 54 54 55 55 56 56 55
41 41 41 42 42 42 43 43 43 44 44 45 45 45 45 45 45 45 45 44 44 44 45 45 46 46 47 47 47 48 49 50 50 50 51 52 53 54 55 56 56 57 56
41 41 41 41 41 41 41 42 42 43 44 44 45 45 45 44 44 44 44 43 43 44 44 44 45 45 46 46 47 47 48 49 49 50 50 51 52 53 54 54 55 56 56
40 40 40 39 39 39 40 40 41 41 42 42 43 43 43 43 42 42 42 42 42 43 43 43 43 44 44 45 46 47 47 48 49 50 50 51 52 52 52 52 53 53 54
39 39 39 39 39 39 39 39 39 40 40 40 40 41 41 41 41 41 41 41 41 41 42 42 43 43 43 44 44 45 46 47 48 49 49 49 49 50 50 50 50 51 51
38 38 38 38 38 39 39 39 39 39 39 38 38 38 38 38 39 40 40 40 40 41 42 42 43 43 42 43 43 43 44 44 45 46 46 47 47 47 47 47 48 48 48
38 38 38 37 37 38 38 38 37 37 37 36 36 36 37 37 38 38 39 39 39 40 41 41 41 41 41 41 41 42 42 43 43 43 44 44 45 45 45 45 45 45 45
38 37 37 36 36 36 35 35 35 34 35 35 36 36 36 37 37 38 38 39 39 40 40 40 40 40 40 40 40 40 40 40 40 40 40 40 40 41 42 42 42 43 43
37 36 36 35 35 34 33 33 32 33 34 34 35 36 36 37 37 37 37 38 38 39 39 39 38 38 38 38 38 37 37 37 37 37 36 36 37 37 37 38 39 39 40
36 36 35 35 34 33 32 32 31 32 32 33 34 34 35 36 36 36 36 36 36 37 37 37 37 37 36 36 36 35 35 34 34 34 34 34 34 34 35 35 36 36 37
34 34 33 33 32 32 31 31 31 31 31 32 32 32 33 33 34 34 34 34 34 34 34 34 34 35 34 34 34 33 33 32 32 32 32 32 32 32 32 33 33 33 34
32 31 31 30 30 30 30 30 30 30 30 30 30 30 30 30 31 31 31 32 32 32 32 32 32 31 31 31 31 31 30 30 29 29 30 30 30 30 30 30 30 31 31
30 29 29 29 29 29 30 30 29 29 29 29 29 29 28 29 29 29 29 29 29 29 29 28 29 29 28 29 29 29 28 28 28 28 28 28 29 29 29 29 29 29 29
Wind_Direction
267 267 268 267 266 266 266 267 268 269 269 268 268 268 267 268 268 266 263 261 260 260 259 259 258 258 258 258 258 258 259 259 259 259 259 260 261 262 263 263 264 265 266
268 268 269 268 268 267 266 267 268 268 268 268 267 267 267 267 268 267 265 262 260 259 259 259 258 257 256 257 257 257 258 259 260 259 259 260 260 262 262 262 263 265 266
269 269 270 270 269 268 267 267 268 268 267 267 267 266 266 267 267 266 264 263 261 260 260 259 258 258 257 257 258 258 259 260 261 261 260 260 261 261 262 262 263 265 265
270 271 271 270 270 269 268 267 268 267 266 266 267 266 265 266 266 265 263 262 261 260 260 259 259 259 259 259 258 258 259 260 261 261 261 261 261 261 262 263 264 265 264
272 272 272 272 271 270 270 268 266 266 266 265 265 265 263 264 266 265 264 263 262 261 261 260 260 260 260 260 259 258 259 260 260 261 261 260 261 261 262 264 264 263 264
272 273 274 273 272 271 270 269 267 267 266 265 264 265 264 263 263 263 264 264 263 263 262 261 261 260 260 260 259 259 260 260 260 260 260 260 260 261 262 263 263 263 263
273 273 273 273 273 272 270 268 267 267 265 265 266 266 265 264 263 263 263 264 264 264 263 262 262 261 261 261 260 260 260 260 261 261 261 260 260 261 261 261 261 262 263
274 274 274 274 272 272 271 269 267 267 266 265 266 266 266 266 265 264 264 264 265 266 264 263 263 262 261 260 260 260 260 260 260 260 261 260 260 260 260 260 261 262 263
274 274 274 274 273 272 271 269 268 266 266 266 267 267 266 265 265 266 265 265 266 266 265 264 264 263 262 261 261 261 260 260 260 261 261 261 260 259 260 261 261 262 263
274 273 273 274 274 272 271 270 268 267 265 266 267 267 267 266 266 267 266 267 267 266 266 265 264 264 262 262 261 261 261 261 261 261 261 261 260 259 260 261 263 264 264
275 274 274 274 273 272 271 270 269 267 266 266 268 268 267 267 266 266 267 267 267 267 266 265 264 264 263 263 262 262 261 261 261 261 261 261 260 261 262 263 264 265 265
276 276 276 275 274 273 272 271 269 268 268 267 267 268 268 268 267 267 267 267 267 267 266 265 264 264 264 263 262 262 262 261 261 261 261 261 261 262 263 264 265 266 266
278 278 277 276 275 274 273 271 269 268 268 267 267 268 268 268 267 268 267 268 268 267 267 266 265 264 263 263 262 262 262 262 262 262 261 261 261 262 263 264 265 266 267
280 279 278 277 277 276 274 271 269 268 268 267 267 267 267 267 268 268 268 268 268 268 267 266 266 265 265 264 263 263 263 263 263 263 262 262 262 262 263 264 264 265 266
281 281 280 279 277 276 275 273 271 270 268 267 266 266 267 268 268 268 268 268 268 268 267 266 266 266 265 265 264 264 264 264 263 263 263 263 263 263 264 264 265 265 265
282 282 282 280 278 276 275 274 273 271 269 267 267 266 267 267 267 267 267 267 266 266 266 266 266 267 266 266 265 265 265 264 264 264 264 264 264 264 265 265 265 266 266
282 281 281 280 279 277 275 274 273 271 269 268 267 266 266 265 265 265 265 266 266 267 267 267 267 267 267 267 266 266 265 265 265 265 266 266 266 266 266 265 266 266 266
282 282 281 280 279 277 276 275 273 270 269 268 266 265 264 265 265 264 265 265 266 267 267 268 268 268 267 267 267 267 266 267 267 267 267 267 267 267 267 266 266 266 265
284 284 283 282 280 278 277 276 274 272 270 269 267 266 266 266 266 265 266 266 266 267 268 268 268 268 268 268 268 268 269 269 269 269 268 267 267 267 267 266 266 266 265
285 285 284 283 282 281 279 277 275 273 271 269 268 267 267 266 266 266 267 267 268 268 268 268 267 267 268 268 268 269 271 271 270 270 269 268 267 267 267 266 266 266 266
285 285 284 284 283 282 281 279 277 275 272 271 270 269 268 268 268 268 268 268 269 269 269 268 268 268 268 269 270 271 272 272 271 270 269 269 268 267 267 267 267 267 267
284 283 283 283 282 282 282 280 278 276 274 273 272 271 270 270 270 269 269 269 269 269 268 267 267 268 268 269 269 270 271 271 271 270 268 268 267 267 267 268 268 268 267
283 283 283 282 282 282 281 281 279 278 276 275 273 272 271 271 270 269 269 269 269 269 268 267 266 266 267 267 267 268 269 269 269 268 267 267 267 267 267 268 268 268 267
283 283 282 282 281 281 281 281 280 279 278 276 274 273 272 272 271 269 269 269 269 268 267 266 265 266 265 266 267 267 268 268 268 267 267 267 266 266 267 268 268 267 267
284 282 281 281 281 281 282 281 281 280 279 278 276 274 273 273 272 270 269 269 268 268 267 266 266 265 265 266 266 267 267 267 267 266 266 266 266 267 267 267 267 267 266
284 283 281 281 282 282 282 281 281 280 280 279 278 276 275 274 273 271 269 269 269 268 268 267 265 265 265 266 266 266 267 267 267 267 267 266 266 267 267 266 266 266 265
Height
5617 5617 5616 5616 5616 5617 5617 5618 5618 5619 5618 5618 5618 5618 5618 5618 5618 5618 5619 5620 5621 5622 5623 5624 5626 5627 5628 5629 5631 5633 5634 5636 5638 5640 5641 5642 5643 5644 5644 5644 5644 5645 5645
5604 5604 5603 5603 5603 5603 5603 5604 5604 5605 5605 5605 5605 5604 5604 5604 5604 5605 5605 5606 5607 5608 5609 5610 5611 5613 5614 5615 5617 5618 5619 5621 5623 5625 5626 5627 5628 5629 5630 5630 5630 5631 5631
5591 5590 5590 5590 5589 5590 5590 5590 5590 5591 5590 5590 5590 5590 5590 5590 5591 5591 5591 5592 5594 5595 5596 5597 5598 5599 5600 5601 5603 5604 5605 5606 5608 5610 5611 5612 5613 5614 5615 5615 5616 5616 5616
5578 5578 5577 5577 5576 5576 5576 5576 5576 5576 5576 5577 5576 5577 5577 5577 5577 5577 5578 5579 5580 5581 5582 5583 5584 5585 5586 5587 5589 5590 5591 5592 5593 5595 5596 5597 5598 5599 5600 5601 5601 5601 5602
5566 5565 5564 5564 5563 5563 5563 5562 5562 5562 5562 5563 5563 5563 5563 5563 5563 5563 5565 5566 5566 5567 5568 5569 5570 5571 5572 5573 5575 5576 5577 5578 5579 5580 5581 5583 5583 5584 5585 5586 5586 5587 5587
5553 5552 5552 5551 5550 5549 5549 5549 5549 5549 5549 5549 5549 5549 5549 5549 5549 5550 5551 5552 5552 5553 5554 5555 5556 5557 5558 5559 5560 5561 5562 5564 5565 5566 5567 5568 5568 5569 5570 5570 5571 5573 5574
5541 5540 5539 5538 5537 5536 5535 5535 5535 5535 5535 5535 5535 5535 5535 5535 5535 5536 5536 5537 5538 5538 5539 5540 5541 5542 5543 5544 5545 5546 5547 5549 5550 5552 5552 5552 5553 5554 5555 5556 5556 5557 5558
5528 5526 5525 5524 5523 5522 5521 5521 5521 5521 5521 5521 5521 5521 5521 5520 5521 5521 5522 5523 5523 5523 5524 5525 5526 5527 5527 5528 5530 5531 5532 5534 5535 5536 5538 5538 5538 5538 5539 5540 5541 5542 5543
5514 5513 5512 5510 5509 5508 5508 5507 5507 5507 5507 5508 5508 5507 5507 5507 5506 5507 5507 5508 5508 5509 5509 5509 5510 5511 5512 5513 5515 5516 5518 5518 5518 5520 5521 5522 5523 5523 5524 5525 5525 5526 5527
5501 5500 5498 5497 5496 5495 5494 5494 5494 5494 5494 5494 5494 5493 5493 5492 5492 5492 5492 5493 5494 5494 5494 5494 5495 5496 5497 5497 5499 5500 5501 5502 5503 5504 5505 5507 5507 5508 5508 5509 5510 5510 5511
5487 5486 5485 5483 5482 5481 5481 5480 5480 5480 5480 5480 5480 5479 5478 5478 5478 5478 5477 5478 5478 5478 5479 5479 5479 5480 5481 5482 5483 5484 5485 5486 5487 5489 5490 5491 5491 5492 5493 5493 5494 5494 5495
5474 5472 5471 5469 5468 5467 5466 5466 5465 5466 5466 5465 5465 5465 5464 5463 5463 5463 5462 5462 5462 5463 5463 5463 5464 5464 5465 5466 5467 5468 5469 5470 5471 5473 5474 5475 5476 5476 5477 5477 5478 5478 5479
5460 5458 5457 5455 5454 5453 5452 5451 5451 5451 5451 5451 5450 5450 5449 5449 5448 5448 5447 5447 5447 5447 5447 5447 5448 5448 5449 5450 5451 5452 5453 5454 5455 5456 5458 5459 5460 5460 5461 5462 5462 5462 5462
5447 5445 5443 5442 5440 5438 5437 5437 5436 5436 5436 5435 5435 5435 5435 5434 5433 5433 5432 5432 5432 5432 5432 5432 5433 5433 5434 5435 5436 5436 5437 5438 5439 5440 5441 5442 5443 5444 5444 5445 5446 5446 5446
5433 5431 5429 5428 5426 5424 5423 5422 5422 5421 5420 5420 5420 5420 5420 5420 5419 5418 5417 5418 5418 5418 5418 5418 5418 5419 5419 5420 5421 5421 5422 5422 5423 5424 5425 5425 5426 5427 5427 5428 5428 5428 5429
5420 5418 5416 5414 5412 5410 5409 5408 5406 5406 5405 5404 5404 5405 5404 5404 5404 5404 5403 5403 5403 5403 5403 5404 5404 5404 5405 5405 5406 5406 5406 5406 5407 5407 5408 5409 5409 5409 5410 5410 5410 5411 5412
5407 5405 5403 5400 5398 5397 5395 5394 5393 5392 5390 5389 5389 5389 5389 5389 5389 5389 5389 5389 5389 5389 5390 5390 5390 5390 5390 5390 5391 5391 5391 5391 5391 5392 5392 5392 5392 5393 5393 5393 5393 5394 5394
5394 5392 5390 5388 5385 5384 5382 5380 5379 5378 5377 5376 5375 5375 5375 5376 5376 5376 5376 5377 5377 5377 5377 5377 5377 5377 5376 5376 5376 5376 5376 5376 5376 5376 5376 5376 5376 5377 5377 5377 5377 5377 5378
5382 5379 5377 5375 5373 5371 5369 5367 5366 5365 5364 5363 5363 5363 5363 5363 5363 5363 5363 5364 5364 5363 5363 5363 5363 5363 5362 5362 5362 5362 5362 5361 5361 5361 5361 5361 5361 5361 5361 5361 5361 5362 5362
5370 5367 5365 5363 5361 5359 5357 5355 5353 5352 5352 5351 5351 5350 5350 5350 5350 5350 5350 5350 5350 5350 5350 5349 5349 5349 5349 5349 5349 5348 5348 5347 5347 5347 5346 5346 5346 5346 5347 5347 5347 5347 5348
5358 5355 5353 5351 5349 5347 5345 5343 5342 5341 5340 5339 5339 5338 5338 5338 5338 5338 5338 5337 5337 5336 5336 5336 5336 5336 5336 5335 5335 5335 5334 5334 5333 5333 5333 5332 5332 5333 5333 5333 5333 5333 5334
5346 5344 5342 5340 5338 5336 5334 5332 5331 5329 5328 5328 5327 5327 5326 5326 5325 5325 5325 5324 5324 5323 5323 5323 5323 5322 5322 5322 5322 5322 5322 5321 5321 5320 5320 5320 5320 5320 5320 5320 5320 5321 5321
5335 5333 5331 5329 5327 5325 5323 5322 5320 5319 5318 5317 5316 5315 5314 5314 5313 5313 5312 5312 5311 5311 5310 5310 5310 5310 5310 5310 5310 5310 5310 5309 5309 5309 5309 5308 5308 5308 5308 5308 5308 5309 5309
5323 5321 5320 5318 5316 5315 5313 5312 5310 5309 5307 5306 5305 5304 5303 5302 5302 5301 5300 5300 5299 5299 5298 5298 5298 5298 5298 5298 5298 5298 5298 5298 5298 5298 5298 5298 5297 5297 5297 5298 5298 5298 5298
5312 5311 5309 5308 5306 5305 5303 5302 5300 5299 5297 5296 5295 5294 5293 5291 5291 5290 5289 5289 5288 5288 5287 5287 5287 5287 5288 5288 5288 5288 5288 5287 5287 5287 5287 5287 5287 5287 5287 5287 5287 5287 5287
5302 5301 5299 5298 5297 5295 5294 5292 5290 5289 5288 5286 5285 5284 5283 5282 5280 5280 5279 5278 5278 5278 5277 5277 5277 5278 5278 5278 5278 5278 5278 5278 5278 5278 5278 5278 5278 5278 5278 5278 5278 5278 5278